Location: Fours
(44.3167°N, 6.7000°E)
Time: 08:30:36
(UTC+00:00)

Okean-O - Pass Details

Date: 30 November 2020
Orbit: 639 x 640 km, 98.2° (Epoch: 26 January)

Event Time Altitude Azimuth Distance (km) Brightness Sun altitude
Rises 17:33:29 0° 148° (SSE) 2,931 5.8 -17.0°
Reaches altitude 10° 17:35:45 10° 141° (SE) 2,027 5.0 -17.4°
Maximum altitude 17:39:56 43° 70° (ENE) 904 2.9 -18.1°
Drops below altitude 10° 17:44:08 10° 360° (N) 2,043 5.1 -18.9°
Sets 17:46:25 0° 353° (N) 2,957 6.0 -19.3°
